Location: Newark
(42.8481°N, 0.4872°E)
Time: 13:38:45
(UTC+00:00)

S-56A Canister/Altair - All Passes

Search period start: 31 October 2020 00:00
Search period end: 10 November 2020 00:00
Orbit: 633 x 2499 km, 38.9° (Epoch: 30 October)

Date Brightness Start Highest point End Pass type
(mag) Time Alt. Az. Time Alt. Az. Time Alt. Az.
31 Oct - 03:29:46 10° S 03:33:00 17° SE 03:36:47 10° E visible
31 Oct - 05:30:30 10° WSW 05:35:45 52° SSE 05:43:21 10° E visible
31 Oct - 07:33:12 10° W 07:39:43 66° S 07:49:46 10° ESE daylight
31 Oct - 09:36:33 10° W 09:44:18 45° SSW 09:55:36 10° SE daylight
31 Oct - 11:41:49 10° W 11:49:00 21° SW 11:57:49 10° S daylight
01 Nov - 02:58:12 10° S 03:00:34 14° SE 03:03:10 10° ESE visible
01 Nov - 04:58:14 10° SW 05:03:09 47° SSE 05:10:01 10° E visible
01 Nov - 07:00:48 10° W 07:06:54 65° S 07:16:12 10° ESE daylight
01 Nov - 09:04:00 10° W 09:11:18 47° SSW 09:22:06 10° SE daylight
01 Nov - 11:08:50 10° W 11:15:56 23° SW 11:24:55 10° S daylight
02 Nov - 02:27:26 10° SSE 02:28:07 10° SE 02:28:49 10° SE visible
02 Nov - 04:26:01 10° SW 04:30:35 41° SSE 04:36:45 10° E visible
02 Nov - 06:28:28 10° W 06:34:08 64° S 06:42:42 10° E daylight
02 Nov - 08:31:32 10° W 08:38:23 49° SSW 08:48:36 10° SE daylight
02 Nov - 10:35:58 10° W 10:42:54 24° SSW 10:51:54 10° SSE daylight
03 Nov - 03:53:47 10° SW 03:58:05 36° SSE 04:03:34 10° E visible
03 Nov - 05:56:07 10° WSW 06:01:26 63° S 06:09:17 10° E visible
03 Nov - 07:59:06 10° W 08:05:30 50° SSW 08:15:08 10° SE daylight
03 Nov - 10:03:13 10° W 10:09:55 26° SSW 10:18:48 10° SSE daylight
04 Nov - 03:21:36 10° SW 03:25:36 30° SSE 03:30:27 10° E visible
04 Nov - 05:23:46 10° WSW 05:28:48 61° S 05:35:58 10° E visible
04 Nov - 07:26:42 10° W 07:32:42 52° SSW 07:41:40 10° ESE daylight
04 Nov - 09:30:33 10° W 09:36:58 27° SSW 09:45:40 10° SSE daylight
05 Nov - 02:49:25 10° SSW 02:53:08 26° SSE 02:57:24 10° E visible
05 Nov - 04:51:27 10° WSW 04:56:11 58° S 05:02:44 10° E visible
05 Nov - 06:54:18 10° W 06:59:56 53° SSW 07:08:17 10° ESE daylight
05 Nov - 08:57:57 10° W 09:04:04 29° SSW 09:12:29 10° SSE daylight
06 Nov - 02:17:15 10° SSW 02:20:41 22° SSE 02:24:24 10° E visible
06 Nov - 04:19:06 10° WSW 04:23:38 54° S 04:29:35 10° E visible
06 Nov - 06:21:57 10° W 06:27:15 54° S 06:34:57 10° ESE daylight
06 Nov - 08:25:25 10° W 08:31:14 30° SSW 08:39:18 10° SSE daylight
06 Nov - 10:35:16 10° SW 10:35:24 10° SW 10:35:33 10° SW daylight
07 Nov - 01:45:08 10° SSW 01:48:13 18° SSE 01:51:25 10° ESE night (unlit)
07 Nov - 03:46:45 10° WSW 03:51:06 50° SSE 03:56:33 10° E visible
07 Nov - 05:49:35 10° W 05:54:35 55° S 06:01:41 10° ESE visible
07 Nov - 07:52:55 10° W 07:58:26 31° SSW 08:06:07 10° SE daylight
07 Nov - 10:00:19 10° SW 10:02:32 11° SW 10:04:56 10° SSW daylight
08 Nov - 01:13:03 10° S 01:15:45 16° SSE 01:18:27 10° ESE night (unlit)
08 Nov - 03:14:22 10° WSW 03:18:37 45° SSE 03:23:36 10° E visible
08 Nov - 05:17:13 10° W 05:21:59 55° S 05:28:30 10° ESE visible
08 Nov - 07:20:29 10° W 07:25:42 32° SSW 07:32:57 10° SE daylight
08 Nov - 09:26:52 10° SW 09:29:41 12° SW 09:32:51 10° SSW daylight
09 Nov - 00:41:01 10° S 00:43:15 13° SSE 00:45:26 10° ESE night (unlit)
09 Nov - 02:41:58 10° SW 02:46:08 41° SSE 02:50:45 10° E visible
09 Nov - 04:44:51 10° W 04:49:25 55° S 04:55:25 10° ESE visible
09 Nov - 06:48:04 10° W 06:53:00 34° SSW 06:59:50 10° SE daylight
09 Nov - 08:53:45 10° WSW 08:56:53 13° SSW 09:00:29 10° S daylight
